FW6002 Weather Reports


time (UTC)temp
C
wind
direction
speed
KPH
gust
KPH
rain 1hr
cm
rain 24hr
cm
rain mn
cm
humidity
%
barometer
mb
20260504234601 26 96 0.0 9.7 0.00 0.00 0.00 64 1005.6
20260504234055 26 0 1.6 9.7 0.00 0.00 0.00 64 1005.9
20260504233557 26 0 1.6 11.3 0.00 0.00 0.00 64 1005.9
20260504233103 27 0 3.2 14.5 0.00 0.00 0.00 63 1005.8
20260504232556 27 94 3.2 14.5 0.00 0.00 0.00 62 1006.0
20260504232054 27 183 1.6 9.7 0.00 0.00 0.00 62 1006.0
20260504231558 27 202 1.6 12.9 0.00 0.00 0.00 62 1006.0
20260504231054 27 126 1.6 12.9 0.00 0.00 0.00 62 1006.0
20260504230555 27 304 3.2 12.9 0.00 0.00 0.00 62 1006.0
20260504230115 27 67 1.6 9.7 0.00 0.00 0.00 63 1006.2
20260504225555 27 80 3.2 17.7 0.00 0.00 0.00 63 1006.0
20260504225058 27 207 4.8 17.7 0.00 0.00 0.00 62 1006.2
20260504224612 27 46 3.2 14.5 0.00 0.00 0.00 62 1006.3
20260504224055 27 0 1.6 12.9 0.00 0.00 0.00 62 1006.3
20260504223555 27 0 3.2 12.9 0.00 0.00 0.00 62 1006.3
20260504223103 27 200 3.2 12.9 0.00 0.00 0.00 60 1006.3
20260504222554 28 164 1.6 12.9 0.00 0.00 0.00 61 1006.2
20260504222055 28 0 3.2 12.9 0.00 0.00 0.00 60 1006.4
20260504221556 28 103 1.6 11.3 0.00 0.00 0.00 61 1006.4
20260504221055 28 50 4.8 11.3 0.00 0.00 0.00 60 1006.6
20260504220555 28 129 3.2 11.3 0.00 0.00 0.00 60 1006.5
20260504220058 28 49 1.6 16.1 0.00 0.00 0.00 60 1006.7
20260504215554 28 96 3.2 16.1 0.00 0.00 0.00 61 1006.7
20260504215055 27 207 1.6 16.1 0.00 0.00 0.00 61 1006.8
20260504214558 27 30 1.6 16.1 0.00 0.00 0.00 61 1006.9
20260504214058 27 0 4.8 16.1 0.00 0.00 0.00 60 1006.9
20260504213554 27 69 3.2 14.5 0.00 0.00 0.00 60 1007.0
20260504213102 28 36 3.2 12.9 0.00 0.00 0.00 59 1007.1
20260504212557 28 320 3.2 11.3 0.00 0.00 0.00 60 1007.1
20260504212057 28 0 3.2 19.3 0.00 0.00 0.00 60 1007.2
20260504211600 28 61 1.6 19.3 0.00 0.00 0.00 59 1007.3
20260504211055 28 184 4.8 19.3 0.00 0.00 0.00 59 1007.6
20260504210559 28 85 3.2 9.7 0.00 0.00 0.00 58 1007.5
20260504205555 28 124 3.2 16.1 0.00 0.00 0.00 59 1007.7
20260504205055 28 209 4.8 20.9 0.00 0.00 0.00 59 1007.6
20260504204556 28 150 3.2 20.9 0.00 0.00 0.00 58 1007.8
20260504204059 28 163 3.2 14.5 0.00 0.00 0.00 57 1008.0
20260504203555 28 352 3.2 11.3 0.00 0.00 0.00 57 1007.9
20260504203057 28 0 4.8 11.3 0.00 0.00 0.00 58 1007.9
20260504202555 30 44 1.6 11.3 0.00 0.00 0.00 57 1008.1
20260504202058 29 213 1.6 16.1 0.00 0.00 0.00 58 1008.2
20260504201604 28 27 4.8 16.1 0.00 0.00 0.00 57 1008.1
20260504201054 28 42 4.8 16.1 0.00 0.00 0.00 57 1008.3
20260504200555 29 117 4.8 14.5 0.00 0.00 0.00 55 1008.5
20260504195554 29 0 1.6 17.7 0.00 0.00 0.00 60 1008.7
20260504195052 28 145 3.2 17.7 0.00 0.00 0.00 57 1008.7
20260504194555 28 142 4.8 17.7 0.00 0.00 0.00 59 1009.1
20260504194055 28 134 3.2 14.5 0.00 0.00 0.00 56 1009.1
20260504193555 29 31 1.6 9.7 0.00 0.00 0.00 57 1009.0
20260504193058 29 126 1.6 11.3 0.00 0.00 0.00 57 1009.1
20260504192555 29 146 1.6 11.3 0.00 0.00 0.00 59 1009.2
20260504192055 28 107 3.2 19.3 0.00 0.00 0.00 58 1009.4
20260504191608 28 144 1.6 19.3 0.00 0.00 0.00 58 1009.4
20260504191055 28 168 3.2 11.3 0.00 0.00 0.00 57 1009.4
20260504190559 28 17 3.2 12.9 0.00 0.00 0.00 59 1009.4
20260504190055 28 192 3.2 16.1 0.00 0.00 0.00 57 1009.6
20260504185554 28 9 3.2 16.1 0.00 0.00 0.00 59 1009.6
20260504185055 28 64 3.2 16.1 0.00 0.00 0.00 57 1009.7
20260504184555 28 223 4.8 12.9 0.00 0.00 0.00 57 1009.7
20260504184054 28 325 1.6 11.3 0.00 0.00 0.00 57 1009.8
20260504183554 28 150 3.2 14.5 0.00 0.00 0.00 60 1009.8
20260504183053 28 29 3.2 14.5 0.00 0.00 0.00 59 1009.8
20260504182559 27 226 3.2 12.9 0.00 0.00 0.00 60 1010.0
20260504182052 28 314 1.6 12.9 0.00 0.00 0.00 62 1010.1
20260504181559 27 346 3.2 12.9 0.00 0.00 0.00 57 1010.2
20260504181052 27 352 1.6 11.3 0.00 0.00 0.00 59 1010.3
20260504180554 27 89 1.6 11.3 0.00 0.00 0.00 61 1010.5
20260504180052 27 194 3.2 14.5 0.00 0.00 0.00 60 1010.4
20260504175554 27 234 1.6 14.5 0.00 0.00 0.00 62 1010.7
20260504175055 27 158 3.2 12.9 0.00 0.00 0.00 62 1010.8
20260504174559 27 0 3.2 12.9 0.00 0.00 0.00 62 1010.7
20260504174059 27 78 3.2 12.9 0.00 0.00 0.00 61 1010.7
20260504173556 27 100 3.2 9.7 0.00 0.00 0.00 60 1010.8
20260504173058 27 124 3.2 11.3 0.00 0.00 0.00 63 1010.9
20260504172556 26 187 3.2 12.9 0.00 0.00 0.00 63 1011.0
20260504172055 27 201 1.6 12.9 0.00 0.00 0.00 64 1011.1
20260504171559 26 301 3.2 12.9 0.00 0.00 0.00 63 1011.2
20260504171056 26 71 4.8 12.9 0.00 0.00 0.00 62 1011.4
20260504170556 25 195 4.8 12.9 0.00 0.00 0.00 62 1011.5
20260504160107 24 288 1.6 9.7 0.00 0.00 0.00 65 1012.2
20260504151055 23 236 1.6 14.5 0.00 0.00 0.00 66 1012.4
20260504150555 22 123 3.2 14.5 0.00 0.00 0.00 67 1012.6
20260504150104 22 49 3.2 11.3 0.00 0.00 0.00 67 1012.8
20260504141054 20 23 3.2 17.7 0.00 0.00 0.00 76 1012.8
20260504140555 19 61 4.8 14.5 0.00 0.00 0.00 76 1012.7
20260504130554 16 71 1.6 11.3 0.00 0.00 0.00 84 1012.9
20260504120124 13 0 0.0 4.8 0.00 0.00 0.00 85 1012.8
20260504110558 13 0 1.6 6.4 0.00 0.00 0.00 84 1012.5
20260504100554 13 0 0.0 3.2 0.00 0.00 0.00 82 1013.1
20260504081558 15 0 0.0 3.2 0.00 0.00 0.00 76 1013.7
20260504081055 15 0 0.0 3.2 0.00 0.00 0.00 76 1013.7
20260504080555 15 0 0.0 3.2 0.00 0.00 0.00 76 1013.7
20260504050555 15 0 0.0 0.0 0.00 0.00 0.00 73 1015.7
20260504045557 16 0 0.0 0.0 0.00 0.00 0.00 71 1015.6
20260504045054 16 0 0.0 0.0 0.00 0.00 0.00 70 1015.6
20260504044555 16 0 0.0 1.6 0.00 0.00 0.00 69 1015.8
20260504044055 16 0 0.0 1.6 0.00 0.00 0.00 68 1015.6
20260504043555 17 0 0.0 1.6 0.00 0.00 0.00 68 1015.8
20260504043113 17 182 0.0 1.6 0.00 0.00 0.00 67 1015.8
20260504042555 17 0 0.0 3.2 0.00 0.00 0.00 67 1015.8
20260504042059 17 0 0.0 3.2 0.00 0.00 0.00 67 1015.8
20260504041556 17 0 0.0 6.4 0.00 0.00 0.00 66 1015.9
20260504041055 17 202 0.0 6.4 0.00 0.00 0.00 65 1015.9
20260504040557 17 165 0.0 3.2 0.00 0.00 0.00 65 1016.0
20260504040055 17 0 0.0 4.8 0.00 0.00 0.00 65 1016.1
20260504035557 17 0 0.0 4.8 0.00 0.00 0.00 65 1016.1
20260504035056 18 0 0.0 4.8 0.00 0.00 0.00 64 1016.1
20260504034555 18 0 0.0 1.6 0.00 0.00 0.00 64 1016.0
20260504034054 18 0 0.0 1.6 0.00 0.00 0.00 64 1016.0
20260504033554 18 0 0.0 1.6 0.00 0.00 0.00 64 1016.0
20260504033103 18 0 0.0 1.6 0.00 0.00 0.00 64 1016.0
20260504032555 18 0 0.0 1.6 0.00 0.00 0.00 64 1016.0
20260504032056 18 0 0.0 1.6 0.00 0.00 0.00 63 1015.8
20260504031559 18 0 0.0 3.2 0.00 0.00 0.00 63 1015.8
20260504031055 18 0 0.0 3.2 0.00 0.00 0.00 62 1015.8
20260504030555 18 0 0.0 3.2 0.00 0.00 0.00 61 1015.6
20260504030114 18 51 0.0 3.2 0.00 0.00 0.00 61 1015.4
20260504025555 18 0 0.0 3.2 0.00 0.00 0.00 61 1015.4
20260504025055 18 0 0.0 1.6 0.00 0.00 0.00 60 1015.5
20260504024558 18 0 0.0 1.6 0.00 0.00 0.00 60 1015.5
20260504024055 18 0 0.0 1.6 0.00 0.00 0.00 59 1015.6
20260504023555 19 0 0.0 4.8 0.00 0.00 0.00 59 1015.4
20260504023055 19 0 0.0 4.8 0.00 0.00 0.00 58 1015.6
20260504022557 19 0 0.0 1.6 0.00 0.00 0.00 58 1015.6
20260504022058 20 0 0.0 1.6 0.00 0.00 0.00 57 1015.4
20260504021558 20 0 0.0 4.8 0.00 0.00 0.00 56 1015.5
20260504021054 20 0 0.0 4.8 0.00 0.00 0.00 55 1015.3
20260504020557 20 0 0.0 4.8 0.00 0.00 0.00 55 1015.3
20260504020105 20 61 0.0 3.2 0.00 0.00 0.00 54 1015.3
20260504015556 20 0 0.0 4.8 0.00 0.00 0.00 54 1015.3
20260504015055 21 227 0.0 4.8 0.00 0.00 0.00 53 1015.3
20260504014604 21 0 0.0 6.4 0.00 0.00 0.00 53 1015.2
20260504014055 21 0 0.0 6.4 0.00 0.00 0.00 52 1015.2
20260504013555 21 0 0.0 6.4 0.00 0.00 0.00 52 1015.2
20260504013057 21 0 0.0 4.8 0.00 0.00 0.00 51 1015.2
20260504012555 21 50 0.0 9.7 0.00 0.00 0.00 50 1015.1
20260504012055 21 0 0.0 9.7 0.00 0.00 0.00 50 1015.0
20260504011553 22 45 1.6 6.4 0.00 0.00 0.00 50 1015.0
20260504011054 22 0 0.0 6.4 0.00 0.00 0.00 50 1014.9
20260504010556 22 63 1.6 6.4 0.00 0.00 0.00 48 1015.0
20260504010101 22 71 1.6 6.4 0.00 0.00 0.00 49 1014.9
20260504005556 22 0 0.0 6.4 0.00 0.00 0.00 47 1014.9
20260504005055 22 0 0.0 4.8 0.00 0.00 0.00 47 1014.9
20260504004553 22 56 0.0 4.8 0.00 0.00 0.00 47 1015.0
20260504004055 22 0 0.0 8.0 0.00 0.00 0.00 46 1014.9
20260504003555 23 0 0.0 8.0 0.00 0.00 0.00 46 1015.0
20260504003054 23 0 0.0 3.2 0.00 0.00 0.00 45 1015.1
20260504002555 23 0 0.0 3.2 0.00 0.00 0.00 44 1015.2
20260504002055 23 0 0.0 3.2 0.00 0.00 0.00 43 1015.1
20260504001600 23 40 0.0 3.2 0.00 0.00 0.00 41 1015.2
20260504001055 23 0 0.0 4.8 0.00 0.00 0.00 40 1015.1
20260504000555 24 243 0.0 11.3 0.00 0.00 0.00 39 1015.1
20260504000100 24 0 0.0 11.3 0.00 0.00 0.00 39 1015.4
20260503235555 24 185 1.6 11.3 0.00 0.00 0.00 38 1015.5
20260503235055 24 0 0.0 4.8 0.00 0.00 0.00 38 1015.5